This demonstration page uses our WeatherBlox Daily Observations layout. Learn more.

Left ArrowRight Arrow

39.01783, -85.05884

Hourly Observations for July 4, 2018

Temp ( °F °C ) Dew Point ( °F °C ) Humidity (%) Winds ( mph kmh ) Pressure ( in mb ) Visibility ( mi km ) Precip ( " mm )
12:52 am 00:52 Mostly Cloudy 77 25 71 21.7 82 82 ESE 3 6 30.18 1022 10 16 0.00 0.00
1:31 am 01:31 Partly Cloudy 76 24.4 70 21.1 82 82 E 3 6 30.18 1022 10 16 0.00 0.00
1:52 am 01:52 Mostly Clear 76 24.4 70 21.1 82 82 E 3 6 30.18 1022 10 16 0.00 0.00
2:52 am 02:52 Clear 75 23.9 70 21.1 84 84 E 3 6 30.18 1022 10 16 0.00 0.00
3:52 am 03:52 Mostly Clear 75 23.9 70 21.1 84 84 ENE 5 7 30.17 1022 10 16 0.00 0.00
4:52 am 04:52 Mostly Cloudy 76 24.4 70 21.1 82 82 E 5 7 30.19 1022 10 16 0.00 0.00
5:52 am 05:52 Mostly Clear 76 24.4 68 20 77 77 NE 7 11 30.20 1023 10 16 0.00 0.00
6:52 am 06:52 Partly Cloudy 76 24.4 69 20.6 79 79 ENE 7 11 30.22 1023 8 13 0.00 0.00
7:52 am 07:52 Mostly Sunny 78 25.6 70 21.1 76 76 E 3 6 30.22 1023 10 16 0.00 0.00
8:52 am 08:52 Mostly Sunny 82 27.8 73 22.8 74 74 ESE 7 11 30.23 1024 10 16 0.00 0.00
9:52 am 09:52 Partly Cloudy 86 30 73 22.8 65 65 VRB 5 7 30.23 1024 10 16 0.00 0.00
10:52 am 10:52 Mostly Cloudy 89 31.7 73 22.8 59 59 S 5 7 30.23 1024 10 16 0.00 0.00
11:52 am 11:52 Mostly Cloudy 90 32.2 72 22.2 56 56 Calm 30.24 1024 10 16 0.00 0.00
12:52 pm 12:52 Mostly Cloudy 90 32.2 73 22.8 58 58 N 6 9 30.24 1024 10 16 0.00 0.00
1:52 pm 13:52 Partly Cloudy 91 32.8 72 22.2 54 54 Calm 30.22 1024 10 16 0.00 0.00
2:52 pm 14:52 Mostly Cloudy 92 33.3 72 22.2 52 52 NW 7 11 30.21 1023 10 16 0.00 0.00
3:52 pm 15:52 Mostly Cloudy 92 33.3 70 21.1 49 49 VRB 3 6 30.19 1023 10 16 0.00 0.00
4:52 pm 16:52 Mostly Cloudy 92 33.3 69 20.6 47 47 Calm 30.18 1022 10 16 0.00 0.00
5:52 pm 17:52 Mostly Cloudy 91 32.8 72 22.2 54 54 Calm 30.17 1022 10 16 0.00 0.00
6:52 pm 18:52 Mostly Cloudy 91 32.8 72 22.2 54 54 N 6 9 30.17 1022 10 16 0.00 0.00
7:52 pm 19:52 Mostly Cloudy 90 32.2 73 22.8 58 58 ENE 13 20 30.19 1022 10 16 0.00 0.00
8:52 pm 20:52 Mostly Cloudy 88 31.1 73 22.8 61 61 NNE 12 19 30.19 1023 10 16 0.00 0.00
9:52 pm 21:52 Partly Cloudy 87 30.6 73 22.8 63 63 NE 7 11 30.20 1023 10 16 0.00 0.00
10:52 pm 22:52 Mostly Cloudy 84 28.9 72 22.2 67 67 ENE 7 11 30.22 1023 7 11 0.00 0.00
11:52 pm 23:52 Mostly Cloudy 84 28.9 71 21.7 65 65 ENE 6 9 30.21 1023 8 13 0.00 0.00

Powered by AerisWeather